Home   Weather   Feldbach   Past weeks

Flag for Austria Past Weather in Feldbach, Styria, Austria — Yesterday and Last 2 Weeks

Now
56 °F

Clear.


Feels Like: N/A
Forecast: 48 / 74 °F
Wind: N/A

Location: Graz-Thalerhof-Flughafen

Current Time: Sep 30, 2016 at 12:09:02 AM

Latest Report: Sep 29, 2016 at 11:00 PM


Visibility: 7 mi

Pressure: 30.11 "Hg

Humidity: 93%

Dew Point: 54 °F

Location of FeldbachLocation

Past Weather in Feldbach — Graph

°F

Feldbach Temperature Yesterday

Maximum temperature yesterday: 75 °F (at 4:00 PM)
Minimum temperature yesterday: 44 °F (at 7:00 AM)
Average temperature yesterday: 58 °F

High & Low Weather Summary for the Past Weeks

 TemperatureHumidityPressure
High78 °F (Sep 15, 3:00 PM)99% (Sep 15, 5:00 AM)30.43 "Hg (Sep 15, 5:00 AM)
Low41 °F (Sep 23, 7:00 AM)42% (Sep 29, 3:00 PM)29.75 "Hg (Sep 19, 3:00 PM)
Average59 °F79%30.09 "Hg
* Reported Sep 14 10:00 PM — Sep 29 10:00 PM, Feldbach, Weather by CustomWeather, © 2016

Note: Actual official high and low records may vary slightly from our data, if they occured in-between our weather recording intervals... More about our weather records

Advertising

Feldbach Weather History for the Previous 24 Hours

Scroll right to see more
 ConditionsComfort  
Time TempWeatherWind HumidityBarometerVisibility
10:00 PM
Thu, Sep 29
57 °FClear.N/A87%30.11 "Hg11 mi
9:00 PM61 °FClear.N/A82%30.10 "Hg16 mi
8:00 PM62 °FPassing clouds.N/A81%30.10 "Hg15 mi
6:00 PM70 °FPassing clouds.N/A65%30.10 "Hg22 mi
5:00 PM74 °FPassing clouds.N/A55%30.10 "Hg22 mi
4:00 PM75 °FPassing clouds.N/A45%30.13 "Hg19 mi
3:00 PM74 °FPassing clouds.N/A42%30.15 "Hg17 mi
2:00 PM73 °FScattered clouds.N/A43%30.19 "Hg19 mi
1:00 PM70 °FPartly sunny.N/A56%30.22 "Hg14 mi
12:00 PM66 °FPartly sunny.N/A69%30.25 "Hg12 mi
11:00 AM60 °FPartly sunny.N/A71%30.29 "Hg12 mi
10:00 AM55 °FOvercast.N/A85%30.31 "Hg7 mi
9:00 AM51 °FOvercast.N/A94%30.32 "Hg5 mi
8:00 AM46 °FLight rain. Partly sunny.N/A94%30.34 "Hg5 mi
7:00 AM44 °FLight rain. Partly sunny.N/A96%30.34 "Hg2 mi
6:00 AM46 °FLight rain. Passing clouds.N/A98%30.34 "Hg1 mi
5:00 AM47 °FCool.N/A97%30.34 "Hg2 mi
4:00 AM48 °FCool.N/A97%30.34 "Hg1 mi
3:00 AM47 °FPassing clouds.N/A95%30.35 "Hg2 mi
2:00 AM50 °FLight rain. Overcast.N/A96%30.36 "Hg1 mi
1:00 AM49 °FCool.N/A95%30.36 "Hg2 mi
12:00 AM51 °FPassing clouds.N/A96%30.36 "Hg5 mi
Weather by CustomWeather, © 2016

See weather overviewHow to use our weather pages